Location: Unspecified
(33.9239°N, 118.0544°W)
Time: 16:58:14
(UTC-07:00)

Cosmos 1674 - Visible Passes

Search period start: 24 March 2017 00:00
Search period end: 03 April 2017 00:00
Orbit: 498 x 524 km, 82.5° (Epoch: 23 March)

Date Brightness Start Highest point End Pass type
(mag) Time Alt. Az. Time Alt. Az. Time Alt. Az.
24 Mar 4.3 21:10:57 10° N 21:12:51 28° NNW 21:12:51 28° NNW visible
25 Mar 3.3 20:54:32 10° N 20:57:18 47° N 20:57:18 47° N visible
26 Mar 2.6 20:38:09 10° N 20:41:50 58° ENE 20:41:50 58° ENE visible
27 Mar 3.0 20:21:49 10° N 20:25:27 43° E 20:26:29 34° ESE visible
28 Mar 3.4 20:05:33 10° NNE 20:09:00 33° E 20:11:14 18° SE visible
28 Mar 5.8 21:42:58 10° WNW 21:44:14 11° W 21:45:29 10° WSW visible
29 Mar 3.7 19:49:19 10° NNE 19:52:32 25° ENE 19:55:45 10° SE visible
29 Mar 5.7 21:25:42 10° NW 21:27:52 15° W 21:30:04 10° WSW visible
30 Mar 4.1 19:33:13 10° NNE 19:36:04 20° ENE 19:38:55 10° SE visible
30 Mar 5.4 21:08:46 10° NW 21:11:31 19° W 21:14:15 10° SW visible
31 Mar 5.0 20:52:00 10° NW 20:55:08 24° W 20:58:16 10° SW visible
01 Apr 4.6 20:35:20 10° NNW 20:38:45 32° W 20:42:10 10° SSW visible
02 Apr 4.0 20:18:44 10° NNW 20:22:21 42° W 20:25:58 10° SSW visible
